When you browse on this site, cookies collect data to enhance your experience and personalize the content and advertising you see.
Visit our Privacy Policy to learn more. By continuing to use the site, you agree to this use of cookies and data.
  • In Sweden
  • List of Countries
  • For 7 days
  • Water Temperature
  • Weather Map
  • Weather Widgets
  • user-avatar
    Login

    Hourly Weather Clinton

    Today, 21 August, Wednesday

    Time Temperature Precipitation Wind Pressure Humidity
    00:00 +24°C° 0 mm 1 mps 754 mmHg 86%
    01:00 +24°C° 0 mm 1 mps 754 mmHg 87%
    02:00 +24°C° 0 mm 1 mps 754 mmHg 88%
    03:00 +24°C° 0 mm 2 mps 754 mmHg 89%
    04:00 +24°C° 0 mm 2 mps 753 mmHg 91%
    05:00 +24°C° 0 mm 2 mps 753 mmHg 90%
    06:00 +25°C° 0 mm 3 mps 754 mmHg 89%
    07:00 +25°C° 0 mm 3 mps 754 mmHg 88%
    08:00 +27°C° 0 mm 4 mps 754 mmHg 80%
    09:00 +29°C° 0 mm 4 mps 754 mmHg 72%
    10:00 +30°C° 0 mm 4 mps 753 mmHg 64%
    11:00 +33°C° 0 mm 4 mps 753 mmHg 59%
    12:00 +34°C° 0 mm 4 mps 753 mmHg 55%
    13:00 +35°C° 0 mm 3 mps 753 mmHg 50%
    14:00 +35°C° 0 mm 3 mps 752 mmHg 51%
    15:00 +35°C° 0 mm 3 mps 752 mmHg 51%
    16:00 +35°C° 0 mm 3 mps 751 mmHg 52%
    17:00 +34°C° 0.3 mm 3 mps 751 mmHg 59%
    18:00 +31°C° 0.3 mm 2 mps 751 mmHg 67%
    19:00 +29°C° 0.3 mm 2 mps 751 mmHg 75%
    20:00 +28°C° 0.6 mm 2 mps 751 mmHg 77%
    21:00 +28°C° 0.6 mm 2 mps 752 mmHg 80%
    22:00 +27°C° 0.6 mm 2 mps 752 mmHg 82%
    23:00 +27°C° 0.1 mm 2 mps 752 mmHg 82%

    Tomorrow, 22 August, Thursday

    Time Temperature Precipitation Wind Pressure Humidity
    00:00 +26°C° 0.1 mm 2 mps 752 mmHg 81%
    01:00 +26°C° 0.1 mm 2 mps 752 mmHg 81%
    02:00 +26°C° 0 mm 2 mps 752 mmHg 82%
    03:00 +25°C° 0 mm 2 mps 752 mmHg 83%
    04:00 +25°C° 0 mm 1 mps 752 mmHg 83%
    05:00 +25°C° 0 mm 1 mps 752 mmHg 83%
    06:00 +26°C° 0 mm 2 mps 753 mmHg 82%
    07:00 +26°C° 0 mm 2 mps 753 mmHg 81%
    08:00 +28°C° 0 mm 2 mps 753 mmHg 73%
    09:00 +30°C° 0 mm 2 mps 753 mmHg 65%
    10:00 +32°C° 0 mm 2 mps 753 mmHg 57%
    11:00 +34°C° 0 mm 2 mps 753 mmHg 53%
    12:00 +35°C° 0 mm 2 mps 753 mmHg 49%
    13:00 +36°C° 0 mm 2 mps 753 mmHg 44%
    14:00 +36°C° 0 mm 2 mps 752 mmHg 44%
    15:00 +36°C° 0 mm 2 mps 752 mmHg 44%
    16:00 +36°C° 0 mm 2 mps 751 mmHg 44%
    17:00 +34°C° 0.6 mm 3 mps 752 mmHg 54%
    18:00 +30°C° 0.6 mm 3 mps 752 mmHg 65%
    19:00 +28°C° 0.6 mm 4 mps 752 mmHg 75%
    20:00 +27°C° 3.1 mm 3 mps 752 mmHg 79%
    21:00 +26°C° 3.1 mm 2 mps 753 mmHg 83%
    22:00 +25°C° 3.1 mm 1 mps 753 mmHg 86%
    23:00 +25°C° 0.1 mm 1 mps 753 mmHg 87%

    Day after tomorrow, 23 August, Friday

    Time Temperature Precipitation Wind Pressure Humidity
    00:00 +25°C° 0.1 mm 1 mps 753 mmHg 87%
    01:00 +25°C° 0.1 mm 1 mps 753 mmHg 88%
    02:00 +25°C° 0 mm 1 mps 753 mmHg 88%
    03:00 +24°C° 0 mm 2 mps 753 mmHg 89%
    04:00 +24°C° 0 mm 2 mps 753 mmHg 89%
    05:00 +24°C° 0.2 mm 2 mps 753 mmHg 88%
    06:00 +24°C° 0.2 mm 2 mps 754 mmHg 87%
    07:00 +24°C° 0.2 mm 2 mps 755 mmHg 85%
    08:00 +24°C° 0.2 mm 2 mps 755 mmHg 83%
    09:00 +23°C° 0.2 mm 2 mps 755 mmHg 81%
    10:00 +23°C° 0.2 mm 2 mps 755 mmHg 79%
    11:00 +22°C° 0.1 mm 3 mps 755 mmHg 75%
    12:00 +24°C° 0.1 mm 3 mps 755 mmHg 71%
    13:00 +24°C° 0.1 mm 3 mps 755 mmHg 67%
    14:00 +22°C° 0.2 mm 3 mps 755 mmHg 71%
    15:00 +21°C° 0.2 mm 2 mps 755 mmHg 75%
    16:00 +21°C° 0.2 mm 1 mps 755 mmHg 79%
    17:00 +21°C° 0 mm 1 mps 755 mmHg 77%
    18:00 +21°C° 0 mm 1 mps 755 mmHg 76%
    19:00 +21°C° 0 mm 1 mps 755 mmHg 74%
    20:00 +21°C° 0 mm 1 mps 755 mmHg 74%
    21:00 +21°C° 0 mm 1 mps 755 mmHg 73%
    22:00 +21°C° 0 mm 1 mps 755 mmHg 72%
    23:00 +21°C° 0 mm 1 mps 755 mmHg 72%

    24 August, Saturday

    Time Temperature Precipitation Wind Pressure Humidity
    00:00 +21°C° 0 mm 1 mps 755 mmHg 73%
    01:00 +21°C° 0 mm 1 mps 756 mmHg 73%
    02:00 +20°C° 0 mm 2 mps 756 mmHg 72%
    03:00 +20°C° 0 mm 2 mps 755 mmHg 71%
    04:00 +20°C° 0 mm 2 mps 755 mmHg 70%
    05:00 +20°C° 0 mm 2 mps 756 mmHg 69%
    06:00 +20°C° 0 mm 3 mps 756 mmHg 69%
    07:00 +20°C° 0 mm 3 mps 757 mmHg 68%
    08:00 +21°C° 0 mm 3 mps 757 mmHg 61%
    09:00 +24°C° 0 mm 3 mps 757 mmHg 55%
    10:00 +25°C° 0 mm 3 mps 758 mmHg 48%
    11:00 +26°C° 0 mm 3 mps 757 mmHg 46%
    12:00 +27°C° 0 mm 3 mps 757 mmHg 43%
    13:00 +28°C° 0 mm 2 mps 757 mmHg 41%
    14:00 +28°C° 0 mm 2 mps 757 mmHg 43%
    15:00 +27°C° 0 mm 2 mps 756 mmHg 45%
    16:00 +27°C° 0 mm 2 mps 756 mmHg 47%
    17:00 +25°C° 0 mm 2 mps 756 mmHg 52%
    18:00 +24°C° 0 mm 1 mps 756 mmHg 57%
    19:00 +22°C° 0 mm 1 mps 757 mmHg 62%
    20:00 +22°C° 0 mm 1 mps 757 mmHg 62%
    21:00 +21°C° 0 mm 1 mps 757 mmHg 62%
    22:00 +21°C° 0 mm 1 mps 758 mmHg 62%
    23:00 +20°C° 0 mm 1 mps 758 mmHg 66%

    25 August, Sunday

    Time Temperature Precipitation Wind Pressure Humidity
    00:00 +20°C° 0 mm 1 mps 758 mmHg 70%
    01:00 +20°C° 0 mm 1 mps 758 mmHg 74%
    02:00 +19°C° 0 mm 1 mps 758 mmHg 76%
    03:00 +19°C° 0 mm 1 mps 758 mmHg 78%
    04:00 +19°C° 0 mm 1 mps 758 mmHg 80%
    05:00 +20°C° 0 mm 1 mps 758 mmHg 79%
    06:00 +20°C° 0 mm 1 mps 758 mmHg 77%
    07:00 +21°C° 0 mm 1 mps 759 mmHg 75%
    08:00 +23°C° 0 mm 2 mps 759 mmHg 67%
    09:00 +24°C° 0 mm 2 mps 759 mmHg 60%
    10:00 +26°C° 0 mm 3 mps 759 mmHg 52%
    11:00 +27°C° 0 mm 3 mps 759 mmHg 50%
    12:00 +27°C° 0 mm 3 mps 758 mmHg 49%
    13:00 +28°C° 0 mm 3 mps 758 mmHg 47%
    14:00 +28°C° 0 mm 3 mps 758 mmHg 49%
    15:00 +28°C° 0 mm 3 mps 758 mmHg 51%
    16:00 +27°C° 0 mm 4 mps 758 mmHg 53%
    17:00 +26°C° 0 mm 4 mps 758 mmHg 60%
    18:00 +25°C° 0 mm 4 mps 758 mmHg 66%
    19:00 +22°C° 0 mm 4 mps 758 mmHg 72%
    20:00 +22°C° 0 mm 3 mps 758 mmHg 73%
    21:00 +21°C° 0 mm 3 mps 759 mmHg 74%
    22:00 +21°C° 0 mm 3 mps 759 mmHg 75%
    23:00 +21°C° 0 mm 3 mps 759 mmHg 76%

    26 August, Monday

    Time Temperature Precipitation Wind Pressure Humidity
    00:00 +20°C° 0 mm 3 mps 758 mmHg 76%
    01:00 +20°C° 0 mm 2 mps 758 mmHg 76%
    02:00 +20°C° 0 mm 2 mps 758 mmHg 77%
    03:00 +20°C° 0 mm 2 mps 758 mmHg 79%
    04:00 +20°C° 0 mm 2 mps 758 mmHg 80%
    05:00 +20°C° 0 mm 2 mps 758 mmHg 80%
    06:00 +21°C° 0 mm 2 mps 758 mmHg 80%
    07:00 +21°C° 0 mm 2 mps 759 mmHg 79%
    08:00 +22°C° 0 mm 3 mps 758 mmHg 78%
    09:00 +22°C° 0 mm 3 mps 758 mmHg 76%
    10:00 +24°C° 0 mm 3 mps 758 mmHg 75%
    11:00 +25°C° 0 mm 3 mps 758 mmHg 73%
    12:00 +26°C° 0 mm 3 mps 758 mmHg 71%
    13:00 +27°C° 0 mm 3 mps 758 mmHg 69%
    14:00 +27°C° 0.1 mm 4 mps 757 mmHg 68%
    15:00 +27°C° 0.1 mm 4 mps 757 mmHg 67%
    16:00 +27°C° 0.1 mm 4 mps 757 mmHg 66%
    17:00 +26°C° 0 mm 4 mps 757 mmHg 69%
    18:00 +26°C° 0 mm 3 mps 757 mmHg 72%
    19:00 +25°C° 0 mm 3 mps 757 mmHg 75%
    20:00 +25°C° 0 mm 3 mps 757 mmHg 75%
    21:00 +24°C° 0 mm 3 mps 757 mmHg 76%
    22:00 +24°C° 0 mm 3 mps 757 mmHg 76%
    23:00 +24°C° 0 mm 3 mps 757 mmHg 78%
    Show more